Brindisi, Italy

2:05 PM CEST on August 18, 2017 (GMT +0200)
Casale Mil

Weather History for LIBR - May, 2013

Change the Weather History Date:

Friday, May 24, 2013

  Actual Average Record
Temperature  
Mean Temperature 64 °F -  
Max Temperature 76 °F 77 °F 78 °F (1998)
Min Temperature 53 °F 63 °F 53 °F (2013)
Growing Degree Days 14 (Base 50)    
Moisture  
Dew Point 56 °F    
Average Humidity 73    
Maximum Humidity 94    
Minimum Humidity 43    
Precipitation  
Precipitation 0.00 in 0.03 in - ()
Sea Level Pressure  
Sea Level Pressure 29.79 in    
Wind  
Wind Speed 8 mph ()    
Max Wind Speed 20 mph    
Max Gust Speed -    
Visibility 6.2 miles    
Events      
Averages and records for this station are not official NWS values.
T = Trace of Precipitation, MM = Missing Value Source: Averaged Metar Reports

Daily Weather History Graph

Daily Weather History Graph

Search for Another Location

Airport or City:

Trip Planner

Search our weather history database for the weather conditions in past years. The results will help you decide how hot, cold, wet, or windy it might be!

Date:

Astronomy

May. 24, 2013 Rise Set
Actual Time 5:23 AM CEST 8:06 PM CEST
Civil Twilight 4:52 AM CEST 8:38 PM CEST
Nautical Twilight 4:12 AM CEST 9:18 PM CEST
Astronomical Twilight 3:26 AM CEST 10:04 PM CEST
Moon 7:27 PM CEST (5/24) 4:41 AM CEST (5/24)
Length of Visible Light 15h 46m
Length of Day
14h 42m
Waxing Gibbous, 99% of the Moon is Illuminated
May 24
Waxing Gibbous
May 25
Full
May 31
Last Quarter
Jun 8
New
Jun 16
First Quarter

Hourly Weather History & Observations

Time (CEST) Temp. Dew Point Humidity Pressure Visibility Wind Dir Wind Speed Gust Speed Precip Events Conditions
12:15 AM 59.0 °F 53.6 °F 82% 29.68 in 6.2 mi SSW 4.6 mph - N/A   Partly Cloudy
12:45 AM 59.0 °F 53.6 °F 82% 29.68 in 6.2 mi SSW 5.8 mph - N/A   Partly Cloudy
1:15 AM 59.0 °F 53.6 °F 82% 29.68 in 6.2 mi SW 4.6 mph - N/A   Partly Cloudy
1:45 AM 59.0 °F 55.4 °F 88% 29.68 in 6.2 mi West 5.8 mph - N/A   Partly Cloudy
2:00 AM 59 °F 55 °F 82% 29.70 in 6 mi West 5.8 mph - -   Scattered Clouds
2:15 AM 57.2 °F 53.6 °F 88% 29.71 in - WSW 5.8 mph - N/A   Clear
2:45 AM 57.2 °F 53.6 °F 88% 29.71 in - West 5.8 mph - N/A   Clear
3:15 AM 55.4 °F 53.6 °F 94% 29.71 in - West 5.8 mph - N/A   Clear
3:45 AM 55.4 °F 51.8 °F 88% 29.71 in - West 4.6 mph - N/A   Clear
4:15 AM 55.4 °F 51.8 °F 88% 29.71 in - SW 5.8 mph - N/A   Clear
4:45 AM 55.4 °F 51.8 °F 88% 29.71 in - WSW 4.6 mph - N/A   Clear
5:15 AM 55.4 °F 51.8 °F 88% 29.71 in - WSW 3.5 mph - N/A   Clear
5:45 AM 53.6 °F 51.8 °F 94% 29.74 in - WSW 3.5 mph - N/A   Clear
6:15 AM 55.4 °F 51.8 °F 88% 29.74 in - WSW 2.3 mph - N/A   Clear
6:45 AM 55.4 °F 53.6 °F 94% 29.74 in - SW 2.3 mph - N/A   Clear
7:15 AM 57.2 °F 53.6 °F 88% 29.74 in - SSW 4.6 mph - N/A   Clear
7:45 AM 59.0 °F 55.4 °F 88% 29.74 in - SSW 3.5 mph - N/A   Clear
8:00 AM 59 °F 54 °F 80% 29.76 in 6 mi SSW 3.5 mph - -   Partly Cloudy
8:15 AM 64.4 °F 59.0 °F 83% 29.77 in - SSW 4.6 mph - N/A   Clear
8:45 AM 64.4 °F 59.0 °F 83% 29.77 in - SSW 9.2 mph - N/A   Clear
9:15 AM 64.4 °F 57.2 °F 77% 29.77 in - SSW 8.1 mph - N/A   Clear
9:45 AM 68.0 °F 59.0 °F 73% 29.77 in 6.2 mi WSW 11.5 mph - N/A   Partly Cloudy
10:15 AM 71.6 °F 59.0 °F 64% 29.80 in 6.2 mi SW 10.4 mph - N/A   Partly Cloudy
11:15 AM 71.6 °F 57.2 °F 60% 29.80 in 6.2 mi WSW 15.0 mph - N/A   Partly Cloudy
12:15 PM 71.6 °F 57.2 °F 60% 29.80 in 6.2 mi SW 12.7 mph - N/A   Partly Cloudy
1:15 PM 71.6 °F 57.2 °F 60% 29.80 in 6.2 mi SW 11.5 mph - N/A   Scattered Clouds
1:45 PM 73.4 °F 55.4 °F 53% 29.80 in 6.2 mi SSW 13.8 mph - N/A   Scattered Clouds
2:00 PM 74 °F 56 °F 43% 29.82 in 6 mi SSW 13.8 mph - -   Partly Cloudy
2:15 PM 75.2 °F 55.4 °F 50% 29.80 in 6.2 mi WSW 15.0 mph - N/A   Partly Cloudy
2:45 PM 75.2 °F 53.6 °F 47% 29.80 in 6.2 mi SW 17.3 mph - N/A   Partly Cloudy
3:15 PM 75.2 °F 53.6 °F 47% 29.80 in 6.2 mi WSW 18.4 mph - N/A   Partly Cloudy
3:45 PM 75.2 °F 53.6 °F 47% 29.80 in 6.2 mi SW 16.1 mph - N/A   Partly Cloudy
4:15 PM 75.2 °F 53.6 °F 47% 29.80 in 6.2 mi SW 17.3 mph - N/A   Partly Cloudy
4:45 PM 75.2 °F 55.4 °F 50% 29.83 in 6.2 mi WSW 12.7 mph - N/A   Partly Cloudy
5:15 PM 75.2 °F 55.4 °F 50% 29.83 in 6.2 mi WSW 13.8 mph - N/A   Partly Cloudy
5:45 PM 75.2 °F 55.4 °F 50% 29.83 in 6.2 mi SW 19.6 mph - N/A   Partly Cloudy
6:15 PM 71.6 °F 55.4 °F 57% 29.83 in 6.2 mi SW 17.3 mph - N/A   Partly Cloudy
6:45 PM 71.6 °F 57.2 °F 60% 29.83 in 6.2 mi SW 17.3 mph - N/A   Partly Cloudy
7:15 PM 71.6 °F 57.2 °F 60% 29.83 in 6.2 mi SW 16.1 mph - N/A   Partly Cloudy
7:45 PM 68.0 °F 57.2 °F 68% 29.86 in 6.2 mi SW 16.1 mph - N/A   Partly Cloudy
8:00 PM 68 °F 57 °F 58% 29.86 in 6 mi SW 16.1 mph - -   Scattered Clouds
8:15 PM 68.0 °F 57.2 °F 68% 29.86 in 6.2 mi SW 13.8 mph - N/A   Partly Cloudy
8:45 PM 66.2 °F 59.0 °F 78% 29.89 in 6.2 mi SW 13.8 mph - N/A   Partly Cloudy
9:15 PM 66.2 °F 59.0 °F 78% 29.89 in 6.2 mi SW 15.0 mph - N/A   Partly Cloudy
9:45 PM 64.4 °F 59.0 °F 83% 29.89 in 6.2 mi SW 12.7 mph - N/A   Partly Cloudy
10:15 PM 64.4 °F 59.0 °F 83% 29.89 in 6.2 mi SW 13.8 mph - N/A   Partly Cloudy
10:45 PM 64.4 °F 59.0 °F 83% 29.89 in 6.2 mi SW 10.4 mph - N/A   Partly Cloudy
11:15 PM 64.4 °F 59.0 °F 83% 29.89 in 6.2 mi SW 9.2 mph - N/A   Partly Cloudy
11:45 PM 62.6 °F 59.0 °F 88% 29.92 in 6.2 mi SW 8.1 mph - N/A   Partly Cloudy